Weather History for Alma, MI

Change the Weather History Date:

Saturday, December 8, 2012

  Actual Average Record
Temperature  
Mean Temperature 30 °F -  
Max Temperature 38 °F 35 °F 61 °F (1966)
Min Temperature 22 °F 23 °F -2 °F (2005)
Degree Days  
Heating Degree Days 35    
Moisture  
Dew Point 29 °F    
Average Humidity 94    
Maximum Humidity 99    
Minimum Humidity 84    
Precipitation  
Precipitation 0.00 in - - ()
Sea Level Pressure  
Sea Level Pressure 30.00 in    
Wind  
Wind Speed 8 mph (North)    
Max Wind Speed 13 mph    
Max Gust Speed 16 mph    
Visibility 7 miles    
Events Fog , Snow    
Averages and records for this station are not official NWS values.
T = Trace of Precipitation, MM = Missing Value Source: NWS Daily Summary

Daily Weather History Graph

Daily Weather History Graph

Search for Another Location

Airport:

Trip Planner

Search our weather history database for the weather conditions in past years. The results will help you decide how hot, cold, wet, or windy it might be!

Date:

Astronomy

Dec. 08, 2012 Rise Set
Actual Time 7:58 AM EST 5:02 PM EST
Civil Twilight 7:26 AM EST 5:35 PM EST
Nautical Twilight 6:50 AM EST 6:11 PM EST
Astronomical Twilight 6:16 AM EST 6:45 PM EST
Moon 2:15 AM EST (12/8) 1:39 PM EST (12/8)
Length of Visible Light 10h 08m
Length of Day
9h 04m
Waning Crescent, 28% of the Moon is Illuminated
Dec 8
Waning Crescent
Dec 13
New
Dec 20
First Quarter
Dec 28
Full
Jan 4
Last Quarter

Hourly Weather History & Observations

Time (EST) Temp. Windchill Dew Point Humidity Pressure Visibility Wind Dir Wind Speed Gust Speed Precip Events Conditions
12:15 AM 38.5 °F 30.7 °F 34.2 °F 84% 29.91 in 10.0 mi NE 12.7 mph - N/A   Overcast
12:35 AM 38.3 °F 31.4 °F 34.2 °F 85% 29.91 in 10.0 mi NE 10.4 mph - N/A   Overcast
12:50 AM 38.3 °F 30.9 °F 34.0 °F 84% 29.91 in 10.0 mi NE 11.5 mph - N/A   Overcast
1:10 AM 38.3 °F 31.4 °F 34.0 °F 84% 29.91 in 10.0 mi NE 10.4 mph - N/A   Overcast
1:30 AM 37.8 °F 31.3 °F 34.2 °F 87% 29.89 in 10.0 mi NE 9.2 mph - N/A   Overcast
1:50 AM 37.4 °F 29.8 °F 33.8 °F 87% 29.89 in 10.0 mi ENE 11.5 mph - N/A   Overcast
2:10 AM 37.0 °F 30.4 °F 33.3 °F 86% 29.89 in 10.0 mi NE 9.2 mph 16.1 mph N/A   Overcast
2:31 AM 36.7 °F 29.4 °F 32.9 °F 86% 29.89 in 10.0 mi NE 10.4 mph - N/A   Overcast
3:11 AM 36.0 °F 29.6 °F 32.0 °F 86% 29.90 in 10.0 mi NE 8.1 mph - N/A   Overcast
3:31 AM 36.0 °F 28.0 °F 32.0 °F 86% 29.90 in 10.0 mi NNE 11.5 mph - N/A   Overcast
3:51 AM 35.4 °F 28.4 °F 31.6 °F 86% 29.90 in 10.0 mi North 9.2 mph - N/A Snow Light Snow
4:11 AM 34.2 °F 26.8 °F 31.6 °F 90% 29.89 in 4.0 mi North 9.2 mph - N/A Snow Light Snow
4:31 AM 33.1 °F 24.4 °F 32.0 °F 96% 29.89 in 2.5 mi NNE 11.5 mph - N/A Snow Light Snow
4:52 AM 32.5 °F 24.8 °F 32.0 °F 98% 29.88 in 2.5 mi NNE 9.2 mph - N/A Snow Light Snow
5:12 AM 32.4 °F 24.6 °F 32.0 °F 99% 29.87 in 4.0 mi NNE 9.2 mph - N/A Snow Light Snow
5:32 AM 32.2 °F 23.8 °F 32.0 °F 99% 29.88 in 4.0 mi North 10.4 mph - N/A Snow Light Snow
5:52 AM 32.0 °F 24.2 °F 31.8 °F 99% 29.89 in 2.5 mi North 9.2 mph - N/A Snow Light Snow
6:12 AM 32.0 °F 23.6 °F 31.6 °F 99% 29.89 in 1.8 mi North 10.4 mph - N/A Snow Light Snow
6:32 AM 32.0 °F 23.6 °F 31.6 °F 99% 29.89 in 1.5 mi North 10.4 mph - N/A Snow Light Snow
6:52 AM 31.8 °F 24.6 °F 31.1 °F 97% 29.89 in 1.5 mi NNE 8.1 mph - N/A Snow Light Snow
7:12 AM 31.8 °F 23.9 °F 31.1 °F 97% 29.90 in 1.2 mi North 9.2 mph - N/A Snow Light Snow
7:32 AM 31.8 °F 24.6 °F 31.3 °F 98% 29.90 in 1.0 mi North 8.1 mph - N/A Snow Snow
7:53 AM 31.5 °F 23.5 °F 31.1 °F 99% 29.91 in 1.8 mi North 9.2 mph - N/A Snow Light Snow
8:13 AM 31.6 °F 24.4 °F 31.1 °F 98% 29.92 in 2.0 mi North 8.1 mph - N/A Snow Light Snow
8:33 AM 31.5 °F 22.9 °F 31.1 °F 99% 29.92 in 1.0 mi North 10.4 mph - N/A Snow Light Snow
8:53 AM 31.5 °F 24.2 °F 31.1 °F 99% 29.94 in 0.8 mi North 8.1 mph - N/A Snow Light Snow
9:13 AM 31.5 °F 24.2 °F 30.9 °F 98% 29.94 in 1.2 mi North 8.1 mph - N/A Snow Light Snow
9:33 AM 31.5 °F 24.9 °F 30.9 °F 98% 29.94 in 1.0 mi NNE 6.9 mph - N/A Snow Light Snow
9:53 AM 31.6 °F 26.0 °F 31.1 °F 98% 29.96 in 3.0 mi North 5.8 mph - N/A Snow Light Snow
10:14 AM 31.8 °F 24.6 °F 31.1 °F 97% 29.96 in 5.0 mi North 8.1 mph - N/A Snow Light Snow
10:34 AM 31.6 °F 27.0 °F 30.7 °F 96% 29.98 in 5.0 mi North 4.6 mph - N/A Snow Light Snow
10:54 AM 31.8 °F 26.2 °F 30.7 °F 96% 29.97 in 4.0 mi North 5.8 mph - N/A Snow Light Snow
11:14 AM 32.0 °F 27.5 °F 30.9 °F 96% 29.97 in 4.0 mi NNW 4.6 mph - N/A Snow Light Snow
11:34 AM 32.0 °F 26.4 °F 30.9 °F 96% 29.97 in 7.0 mi NNW 5.8 mph - N/A Snow Light Snow
11:54 AM 32.0 °F 27.5 °F 30.7 °F 95% 29.97 in 10.0 mi NNW 4.6 mph - N/A   Overcast
12:14 PM 32.0 °F 27.5 °F 30.6 °F 94% 29.97 in 10.0 mi NW 4.6 mph - N/A   Overcast
12:34 PM 32.0 °F 25.6 °F 30.6 °F 94% 29.97 in 10.0 mi NNW 6.9 mph - N/A   Overcast
12:55 PM 32.0 °F 26.4 °F 30.2 °F 93% 29.97 in 10.0 mi NNW 5.8 mph - N/A   Overcast
1:15 PM 32.2 °F 25.8 °F 30.7 °F 94% 29.98 in 10.0 mi NW 6.9 mph - N/A   Overcast
1:35 PM 32.5 °F 25.5 °F 30.4 °F 92% 29.99 in 10.0 mi NNW 8.1 mph - N/A   Overcast
1:55 PM 32.9 °F 25.9 °F 30.9 °F 92% 29.99 in 10.0 mi NNW 8.1 mph - N/A   Overcast
2:15 PM 32.9 °F 26.7 °F 30.2 °F 90% 29.99 in 10.0 mi NNW 6.9 mph - N/A   Overcast
2:35 PM 33.1 °F 26.9 °F 30.2 °F 89% 30.00 in 10.0 mi NNW 6.9 mph - N/A   Overcast
2:50 PM 33.3 °F 27.1 °F 30.6 °F 90% 30.01 in 10.0 mi NNW 6.9 mph - N/A   Overcast
3:10 PM 33.1 °F 26.9 °F 30.0 °F 89% 30.02 in 10.0 mi NNW 6.9 mph - N/A   Mostly Cloudy
3:31 PM 33.1 °F 26.9 °F 29.8 °F 88% 30.03 in 10.0 mi NNW 6.9 mph - N/A   Mostly Cloudy
3:51 PM 33.1 °F 26.1 °F 29.7 °F 87% 30.04 in 10.0 mi NNW 8.1 mph - N/A   Scattered Clouds
4:11 PM 32.4 °F 26.0 °F 29.1 °F 88% 30.04 in 10.0 mi NNW 6.9 mph - N/A   Scattered Clouds
4:31 PM 32.0 °F 26.4 °F 28.4 °F 87% 30.05 in 10.0 mi NNW 5.8 mph - N/A   Scattered Clouds
4:51 PM 31.6 °F - 28.2 °F 87% 30.06 in 10.0 mi Calm Calm - N/A   Scattered Clouds
5:11 PM 30.6 °F - 28.0 °F 90% 30.07 in 10.0 mi Calm Calm - N/A   Clear
5:31 PM 27.3 °F - 26.6 °F 97% 30.08 in 10.0 mi Calm Calm - N/A   Clear
5:51 PM 26.8 °F - 26.4 °F 99% 30.08 in 7.0 mi Calm Calm - N/A   Clear
6:12 PM 26.6 °F - 26.4 °F 99% 30.09 in 0.8 mi Calm Calm - N/A   Mist
6:32 PM 25.0 °F 20.7 °F 24.6 °F 99% 30.10 in 2.0 mi NNW 3.5 mph - N/A   Mostly Cloudy
6:52 PM 23.5 °F - 23.4 °F 99% 30.11 in 0.5 mi Calm Calm - N/A Fog Light Freezing Fog
7:12 PM 23.7 °F 19.3 °F 23.4 °F 99% 30.12 in 1.8 mi NNW 3.5 mph - N/A   Mist
7:32 PM 24.6 °F - 24.4 °F 99% 30.13 in 10.0 mi Calm Calm - N/A   Clear
7:52 PM 22.6 °F - 22.3 °F 99% 30.14 in 10.0 mi Calm Calm - N/A   Clear
8:12 PM 22.5 °F - 22.1 °F 99% 30.14 in 3.0 mi Calm Calm - N/A   Clear
8:53 PM 22.3 °F 16.1 °F 21.9 °F 99% 30.14 in 10.0 mi NNE 4.6 mph - N/A   Clear
9:13 PM 22.1 °F 15.9 °F 21.7 °F 99% 30.14 in 10.0 mi NNE 4.6 mph - N/A   Clear
9:33 PM 22.1 °F 15.9 °F 21.7 °F 99% 30.14 in 10.0 mi NE 4.6 mph - N/A   Clear
9:53 PM 23.4 °F 18.9 °F 23.0 °F 99% 30.14 in 10.0 mi NE 3.5 mph - N/A   Clear
10:13 PM 23.5 °F 19.1 °F 23.2 °F 99% 30.14 in 10.0 mi NE 3.5 mph - N/A   Clear
10:33 PM 24.4 °F - 24.3 °F 99% 30.15 in 10.0 mi Calm Calm - N/A   Clear
10:53 PM 24.4 °F - 23.9 °F 98% 30.17 in 10.0 mi Calm Calm - N/A   Mostly Cloudy
11:14 PM 25.5 °F - 24.4 °F 96% 30.17 in 10.0 mi Calm Calm - N/A   Overcast
11:34 PM 25.7 °F - 24.4 °F 95% 30.17 in 10.0 mi Calm Calm - N/A   Overcast
11:53 PM 26.4 °F - 24.8 °F 94% 30.18 in 10.0 mi Calm Calm - N/A   Overcast